When you browse on this site, cookies collect data to enhance your experience and personalize the content and advertising you see.
Visit our Privacy Policy to learn more. By continuing to use the site, you agree to this use of cookies and data.
  • Em Portugal
  • Lista de países
  • Para 7 dias
  • Temperatura da água
  • Mapa do tempo
  • Widgets de tempo
  • user-avatar
    Iniciar Sessão

    Previsão horária em Lunsar

    Hoje, 7 Junho, Domingo

    Tempo Temperatura Precipitação Vento Pressão Humidade
    00:00 +24°C° 0.1 mm 0 m/s 755 mmHg 94%
    01:00 +24°C° 0.1 mm 0 m/s 754 mmHg 95%
    02:00 +24°C° 0.1 mm 0 m/s 753 mmHg 95%
    03:00 +24°C° 0 mm 0 m/s 753 mmHg 96%
    04:00 +24°C° 0 mm 0 m/s 754 mmHg 96%
    05:00 +24°C° 0 mm 0 m/s 754 mmHg 96%
    06:00 +25°C° 0 mm 0 m/s 754 mmHg 92%
    07:00 +26°C° 0 mm 0 m/s 754 mmHg 87%
    08:00 +27°C° 0 mm 0 m/s 755 mmHg 82%
    09:00 +29°C° 0.1 mm 0 m/s 755 mmHg 76%
    10:00 +30°C° 0.1 mm 0 m/s 755 mmHg 70%
    11:00 +33°C° 0.1 mm 1 m/s 755 mmHg 64%
    12:00 +33°C° 0.7 mm 1 m/s 754 mmHg 66%
    13:00 +33°C° 0.7 mm 1 m/s 753 mmHg 67%
    14:00 +34°C° 0.7 mm 2 m/s 753 mmHg 69%
    15:00 +32°C° 2 mm 2 m/s 753 mmHg 75%
    16:00 +30°C° 2 mm 2 m/s 753 mmHg 82%
    17:00 +29°C° 2 mm 2 m/s 753 mmHg 89%
    18:00 +28°C° 0.8 mm 1 m/s 753 mmHg 91%
    19:00 +27°C° 0.8 mm 1 m/s 754 mmHg 93%
    20:00 +27°C° 0.8 mm 1 m/s 754 mmHg 95%
    21:00 +27°C° 2.7 mm 1 m/s 754 mmHg 94%
    22:00 +27°C° 2.7 mm 1 m/s 755 mmHg 94%
    23:00 +27°C° 2.7 mm 1 m/s 755 mmHg 93%

    Amanhã, 8 Junho, Segunda-feira

    Tempo Temperatura Precipitação Vento Pressão Humidade
    00:00 +26°C° 0.9 mm 1 m/s 754 mmHg 94%
    01:00 +26°C° 0.9 mm 1 m/s 754 mmHg 95%
    02:00 +26°C° 0.9 mm 1 m/s 753 mmHg 96%
    03:00 +26°C° 0 mm 1 m/s 753 mmHg 96%
    04:00 +26°C° 0 mm 1 m/s 754 mmHg 96%
    05:00 +24°C° 0 mm 0 m/s 754 mmHg 97%
    06:00 +24°C° 0.2 mm 0 m/s 754 mmHg 95%
    07:00 +27°C° 0.2 mm 1 m/s 754 mmHg 93%
    08:00 +27°C° 0.2 mm 1 m/s 754 mmHg 92%
    09:00 +29°C° 0.5 mm 1 m/s 754 mmHg 84%
    10:00 +30°C° 0.5 mm 1 m/s 754 mmHg 77%
    11:00 +32°C° 0.5 mm 1 m/s 754 mmHg 70%
    12:00 +31°C° 1.9 mm 1 m/s 754 mmHg 74%
    13:00 +31°C° 1.9 mm 1 m/s 753 mmHg 78%
    14:00 +30°C° 1.9 mm 2 m/s 753 mmHg 82%
    15:00 +29°C° 2.3 mm 2 m/s 753 mmHg 85%
    16:00 +29°C° 2.3 mm 1 m/s 752 mmHg 89%
    17:00 +28°C° 2.3 mm 1 m/s 752 mmHg 92%
    18:00 +27°C° 0.4 mm 1 m/s 753 mmHg 93%
    19:00 +27°C° 0.4 mm 1 m/s 753 mmHg 95%
    20:00 +26°C° 0.4 mm 1 m/s 754 mmHg 96%
    21:00 +26°C° 0.1 mm 1 m/s 754 mmHg 96%
    22:00 +24°C° 0.1 mm 0 m/s 754 mmHg 97%
    23:00 +24°C° 0.1 mm 0 m/s 754 mmHg 97%

    Depois de amanhã, 9 Junho, Terça-feira

    Tempo Temperatura Precipitação Vento Pressão Humidade
    00:00 +23°C° 0 mm 0 m/s 754 mmHg 97%
    01:00 +23°C° 0 mm 0 m/s 754 mmHg 97%
    02:00 +23°C° 0 mm 0 m/s 753 mmHg 98%
    03:00 +23°C° 0 mm 0 m/s 753 mmHg 98%
    04:00 +23°C° 0 mm 0 m/s 753 mmHg 98%
    05:00 +23°C° 0 mm 0 m/s 753 mmHg 98%
    06:00 +24°C° 0 mm 0 m/s 753 mmHg 94%
    07:00 +25°C° 0 mm 0 m/s 754 mmHg 90%
    08:00 +26°C° 0 mm 0 m/s 754 mmHg 86%
    09:00 +28°C° 0.4 mm 0 m/s 754 mmHg 81%
    10:00 +29°C° 0.4 mm 0 m/s 754 mmHg 77%
    11:00 +30°C° 0.4 mm 0 m/s 754 mmHg 72%
    12:00 +32°C° 1.8 mm 1 m/s 753 mmHg 74%
    13:00 +31°C° 1.8 mm 1 m/s 753 mmHg 76%
    14:00 +31°C° 1.8 mm 1 m/s 752 mmHg 78%
    15:00 +31°C° 0.4 mm 1 m/s 752 mmHg 79%
    16:00 +30°C° 0.4 mm 1 m/s 752 mmHg 80%
    17:00 +30°C° 0.4 mm 1 m/s 752 mmHg 81%
    18:00 +29°C° 0 mm 1 m/s 752 mmHg 85%
    19:00 +28°C° 0 mm 1 m/s 753 mmHg 88%
    20:00 +27°C° 0 mm 1 m/s 753 mmHg 92%
    21:00 +26°C° 0.1 mm 1 m/s 753 mmHg 92%
    22:00 +24°C° 0.1 mm 0 m/s 754 mmHg 93%
    23:00 +24°C° 0.1 mm 0 m/s 754 mmHg 94%

    10 Junho, Quarta-feira

    Tempo Temperatura Precipitação Vento Pressão Humidade
    00:00 +24°C° 0.4 mm 0 m/s 754 mmHg 94%
    01:00 +24°C° 0.4 mm 0 m/s 753 mmHg 94%
    02:00 +23°C° 0.4 mm 0 m/s 753 mmHg 95%
    03:00 +23°C° 0.3 mm 0 m/s 753 mmHg 95%
    04:00 +23°C° 0.3 mm 0 m/s 753 mmHg 95%
    05:00 +23°C° 0.3 mm 0 m/s 753 mmHg 95%
    06:00 +24°C° 0.4 mm 0 m/s 753 mmHg 94%
    07:00 +24°C° 0.4 mm 0 m/s 754 mmHg 92%
    08:00 +25°C° 0.4 mm 0 m/s 754 mmHg 91%
    09:00 +27°C° 0.6 mm 0 m/s 754 mmHg 81%
    10:00 +29°C° 0.6 mm 0 m/s 754 mmHg 72%
    11:00 +31°C° 0.6 mm 0 m/s 753 mmHg 62%
    12:00 +31°C° 0 mm 0 m/s 753 mmHg 62%
    13:00 +31°C° 0 mm 0 m/s 752 mmHg 62%
    14:00 +31°C° 0 mm 0 m/s 752 mmHg 62%
    15:00 +32°C° 0.1 mm 1 m/s 752 mmHg 67%
    16:00 +31°C° 0.1 mm 1 m/s 752 mmHg 72%
    17:00 +31°C° 0.1 mm 1 m/s 752 mmHg 77%
    18:00 +30°C° 0.6 mm 1 m/s 752 mmHg 82%
    19:00 +28°C° 0.6 mm 1 m/s 753 mmHg 87%
    20:00 +27°C° 0.6 mm 1 m/s 754 mmHg 92%
    21:00 +27°C° 0.9 mm 1 m/s 754 mmHg 93%
    22:00 +27°C° 0.9 mm 1 m/s 754 mmHg 93%
    23:00 +26°C° 0.9 mm 1 m/s 754 mmHg 94%

    11 Junho, Quinta-feira

    Tempo Temperatura Precipitação Vento Pressão Humidade
    00:00 +24°C° 0.1 mm 0 m/s 754 mmHg 94%
    01:00 +24°C° 0.1 mm 0 m/s 753 mmHg 95%
    02:00 +24°C° 0.1 mm 0 m/s 753 mmHg 95%
    03:00 +24°C° 0.2 mm 0 m/s 753 mmHg 95%
    04:00 +24°C° 0.2 mm 0 m/s 753 mmHg 96%
    05:00 +24°C° 0.2 mm 0 m/s 753 mmHg 96%
    06:00 +24°C° 2.7 mm 0 m/s 753 mmHg 95%
    07:00 +25°C° 2.7 mm 0 m/s 754 mmHg 94%
    08:00 +25°C° 2.7 mm 0 m/s 754 mmHg 93%
    09:00 +27°C° 0.1 mm 0 m/s 754 mmHg 85%
    10:00 +29°C° 0.1 mm 0 m/s 754 mmHg 76%
    11:00 +31°C° 0.1 mm 0 m/s 754 mmHg 67%
    12:00 +31°C° 0.2 mm 0 m/s 753 mmHg 66%
    13:00 +31°C° 0.2 mm 0 m/s 753 mmHg 64%
    14:00 +34°C° 0.2 mm 1 m/s 752 mmHg 63%
    15:00 +32°C° 0.7 mm 1 m/s 752 mmHg 71%
    16:00 +30°C° 0.7 mm 1 m/s 752 mmHg 80%
    17:00 +29°C° 0.7 mm 1 m/s 752 mmHg 88%
    18:00 +28°C° 0.1 mm 1 m/s 752 mmHg 90%
    19:00 +27°C° 0.1 mm 1 m/s 753 mmHg 91%
    20:00 +27°C° 0.1 mm 1 m/s 753 mmHg 93%
    21:00 +27°C° 0 mm 1 m/s 753 mmHg 93%
    22:00 +26°C° 0 mm 1 m/s 753 mmHg 94%
    23:00 +26°C° 0 mm 1 m/s 754 mmHg 94%

    12 Junho, Sexta-feira

    Tempo Temperatura Precipitação Vento Pressão Humidade
    00:00 +26°C° 0 mm 1 m/s 753 mmHg 94%
    01:00 +24°C° 0 mm 0 m/s 753 mmHg 95%
    02:00 +24°C° 0 mm 0 m/s 752 mmHg 95%
    03:00 +24°C° 0 mm 0 m/s 752 mmHg 95%
    04:00 +23°C° 0 mm 0 m/s 752 mmHg 96%
    05:00 +23°C° 0 mm 0 m/s 752 mmHg 96%
    06:00 +25°C° 0 mm 0 m/s 753 mmHg 92%
    07:00 +26°C° 0 mm 0 m/s 753 mmHg 87%
    08:00 +27°C° 0 mm 0 m/s 753 mmHg 83%
    09:00 +28°C° 0 mm 0 m/s 753 mmHg 77%
    10:00 +30°C° 0 mm 0 m/s 753 mmHg 72%
    11:00 +33°C° 0 mm 1 m/s 753 mmHg 66%
    12:00 +33°C° 0.1 mm 1 m/s 752 mmHg 65%
    13:00 +34°C° 0.1 mm 1 m/s 751 mmHg 63%
    14:00 +34°C° 0.1 mm 1 m/s 751 mmHg 62%
    15:00 +33°C° 0.2 mm 1 m/s 750 mmHg 69%
    16:00 +32°C° 0.1 mm 1 m/s 750 mmHg 75%
    17:00 +30°C° 0.1 mm 1 m/s 750 mmHg 82%
    18:00 +29°C° 0.5 mm 1 m/s 751 mmHg 86%
    19:00 +28°C° 0.5 mm 1 m/s 751 mmHg 89%
    20:00 +27°C° 0.5 mm 1 m/s 752 mmHg 93%
    21:00 +27°C° 0.5 mm 1 m/s 752 mmHg 94%
    22:00 +27°C° 0.5 mm 1 m/s 752 mmHg 95%
    23:00 +27°C° 0.5 mm 1 m/s 753 mmHg 96%
    Mostrar mais